Theta_e
295 295 295 295 295 295 295 296 297 297 297 297 298 298 299 302 302 298 293 298 295 287 291 295 297 293 292 292 286 286 288 286 285 286 287 286 281 282 279 278 277 278 282 282 283 283 282 286 284 286 290 284 284 283
294 294 294 295 295 295 295 296 296 296 296 297 298 299 298 302 302 300 289 298 299 293 292 297 297 298 299 298 291 290 290 288 291 288 285 285 285 281 278 283 279 283 284 283 286 286 289 286 289 288 288 286 284 284
294 294 294 294 294 295 295 295 296 296 296 297 297 298 298 301 300 298 292 296 296 287 289 290 292 298 300 300 300 288 290 293 291 294 288 286 285 283 280 279 278 280 282 280 282 285 286 286 287 286 288 286 286 285
293 293 294 294 293 294 294 295 295 295 296 297 297 297 299 300 299 297 290 293 296 291 285 287 293 295 299 300 299 298 295 295 295 293 287 286 286 285 282 283 286 281 283 277 279 284 284 286 286 289 289 287 286 286
293 294 293 293 293 294 294 295 294 295 296 296 297 296 300 299 299 293 290 292 296 291 285 285 288 292 295 298 298 297 296 294 290 286 285 285 286 284 281 281 278 281 280 284 282 289 289 291 289 289 289 289 289 286
293 293 293 293 293 293 293 293 294 294 294 296 297 296 298 298 296 286 274 288 294 293 285 282 286 286 291 297 296 295 296 292 290 286 285 286 286 286 285 282 285 284 284 289 289 288 288 284 281 283 286 286 286 286
293 293 292 293 293 293 293 293 293 294 294 296 295 298 298 297 286 280 276 285 294 294 285 282 281 285 286 288 286 286 289 286 287 286 285 286 286 288 285 285 287 286 288 287 286 286 285 283 287 280 281 278 278 278
291 292 292 293 292 292 292 293 293 294 293 296 296 297 297 295 289 281 288 296 295 287 285 281 280 284 287 285 285 286 285 285 285 285 284 285 285 285 284 287 288 289 287 284 286 286 287 281 278 276 272 274 277 280
291 292 293 293 293 293 293 293 294 292 294 297 297 294 286 279 271 276 292 292 291 287 281 282 278 277 286 285 285 285 286 283 284 284 284 286 284 283 286 287 286 289 287 288 283 280 279 279 280 274 275 279 280 279
291 292 292 292 293 293 294 292 292 295 297 293 287 278 272 275 288 288 278 271 275 283 283 278 275 279 286 284 284 284 285 281 278 282 285 283 284 284 283 284 283 282 282 282 278 276 277 274 276 271 269 277 279 277
291 293 293 292 294 294 292 295 296 292 290 281 276 275 282 289 277 268 264 265 271 274 275 279 279 281 285 283 283 285 283 282 276 277 282 281 281 281 276 275 275 276 277 276 278 278 279 281 277 271 267 266 267 267
291 292 294 294 294 294 292 292 290 283 280 281 282 280 276 270 265 264 258 268 274 265 276 273 281 283 284 285 284 283 280 281 275 283 282 275 277 274 273 270 270 272 273 273 274 274 272 272 271 268 265 264 262 261
290 290 295 295 295 295 293 291 290 290 283 278 275 271 269 267 262 258 259 262 269 267 277 280 275 284 284 284 283 283 279 276 283 279 278 275 270 269 268 267 267 268 268 268 268 268 267 267 267 266 264 263 263 262
289 290 293 293 292 292 292 291 289 283 274 270 267 264 261 261 258 258 260 263 267 269 271 277 279 281 281 281 282 277 276 281 276 273 271 270 266 267 266 266 267 266 268 267 266 265 264 263 262 262 262 260 262 262
288 290 289 291 292 292 291 289 286 276 270 265 263 260 260 258 258 256 255 261 263 267 270 274 278 281 279 276 279 276 276 273 272 271 271 260 255 262 262 263 264 264 264 264 265 265 262 261 261 260 260 260 259 260
287 286 285 291 292 291 290 285 276 271 265 262 261 259 261 259 257 266 258 258 263 268 267 272 275 274 269 273 272 270 268 265 270 261 253 255 256 258 261 262 262 262 262 262 262 262 260 259 260 258 259 259 259 259
285 272 288 290 290 289 287 274 270 264 261 260 262 258 255 254 261 257 256 260 269 269 267 272 272 273 274 269 270 271 271 262 258 254 252 252 255 256 257 258 258 259 259 259 259 260 257 256 257 261 260 257 260 260
271 279 290 289 284 282 275 273 266 261 264 266 261 258 262 255 258 254 265 262 265 267 268 270 272 271 270 270 270 262 252 255 252 257 257 255 254 255 257 257 257 258 258 259 260 258 258 260 260 260 259 258 260 259
279 285 288 287 281 271 270 269 267 264 257 255 255 256 254 255 255 258 256 262 258 262 265 269 270 271 271 271 268 264 259 257 257 257 257 256 256 257 259 260 260 260 259 257 259 259 258 258 259 259 258 258 260 258
288 287 286 282 277 267 264 262 262 263 261 260 257 258 256 256 255 252 251 253 259 261 264 265 269 270 260 259 259 261 263 261 260 258 256 256 257 259 260 261 259 259 259 259 259 261 261 261 262 263 263 263 261 259
277 279 280 270 261 258 256 254 259 256 256 259 257 260 258 257 255 255 255 253 259 258 260 261 259 256 250 253 255 256 261 262 261 260 259 257 258 259 259 259 260 260 260 259 258 258 259 259 259 261 260 259 260 260
263 279 268 274 267 259 256 253 255 256 256 255 256 255 254 255 254 254 252 256 258 258 252 254 256 256 253 250 249 250 251 258 260 260 260 259 257 258 259 259 259 257 256 255 256 257 255 255 258 258 258 256 257 257
272 267 262 265 263 260 256 255 258 257 259 257 256 257 255 253 254 255 255 257 254 249 249 253 254 252 251 248 247 251 255 260 260 260 259 258 258 260 259 258 259 258 256 254 255 257 257 259 258 257 257 256 256 255
270 262 257 258 260 258 253 253 254 255 257 262 262 262 259 257 255 259 262 263 253 251 252 251 253 252 253 253 252 249 252 255 255 254 254 257 256 252 256 255 256 256 258 257 257 257 258 259 259 258 257 255 254 254
267 262 258 255 249 254 250 252 249 252 253 248 259 262 258 253 260 261 264 263 254 253 253 252 252 253 254 251 252 251 248 252 257 254 248 251 251 252 251 250 250 250 254 256 255 255 254 255 255 255 254 254 253 252
260 255 254 252 252 256 254 252 251 252 247 248 250 246 246 256 262 264 261 257 257 255 252 252 253 251 250 249 251 250 249 243 251 252 247 249 252 256 254 254 253 253 250 250 255 254 252 251 251 251 251 251 252 250
259 257 250 248 249 249 250 248 248 250 249 252 247 248 250 254 255 257 253 252 253 251 251 251 252 251 251 247 243 245 246 244 248 250 250 247 246 246 251 254 253 252 249 249 249 253 252 250 250 250 248 245 245 249
250 252 252 250 249 246 250 245 245 249 247 241 246 252 253 254 255 250 248 247 245 245 246 245 245 248 250 246 245 246 246 246 249 250 251 249 245 243 243 243 245 254 249 248 248 249 250 251 250 249 249 249 244 243
248 246 246 249 248 248 244 246 245 242 242 242 249 248 248 244 242 242 243 240 238 240 243 245 243 242 244 243 242 240 247 251 251 249 248 246 246 248 243 245 248 248 248 249 255 251 250 250 250 249 248 248 245 246
244 243 249 244 248 250 242 238 239 238 239 238 238 240 241 241 240 236 238 239 241 241 239 238 237 240 243 245 242 243 240 238 241 248 249 247 249 246 245 247 247 245 246 250 252 255 260 254 253 247 250 249 249 249
244 244 248 249 249 243 242 240 238 238 240 240 241 242 243 243 244 241 241 240 239 239 241 240 241 239 243 243 242 244 244 243 239 240 239 240 243 250 249 247 246 246 247 249 250 252 250 247 249 248 248 248 248 249
244 245 247 248 244 240 240 241 242 244 244 246 246 245 247 248 250 246 245 245 246 246 248 245 245 245 246 247 248 249 251 248 248 244 241 241 241 243 247 247 246 246 248 249 249 249 249 248 248 248 247 247 247 247
236 236 240 244 245 245 242 241 244 246 245 245 245 238 241 243 251 247 246 245 246 248 250 250 251 252 253 253 253 252 251 251 251 254 251 250 246 246 245 245 246 248 250 250 249 249 248 247 248 248 249 249 249 248
Wind_Speed
34 32 32 31 31 30 29 26 27 26 25 24 20 22 25 25 23 9 3 6 3 4 5 3 3 11 9 11 8 6 7 2 3 7 9 5 4 8 5 5 10 10 11 6 3 7 14 8 6 11 5 1 5 4
25 25 29 29 32 32 31 28 26 26 24 24 24 22 27 26 23 16 3 7 7 6 3 1 3 5 10 22 9 12 5 10 7 8 4 5 3 3 7 9 2 8 9 10 13 8 4 11 6 8 4 5 5 5
25 25 25 24 25 28 28 26 24 23 24 25 22 24 27 26 23 15 3 3 6 2 2 1 5 5 0 3 7 7 1 5 4 2 5 3 5 6 7 6 5 6 3 4 4 7 10 9 6 5 7 6 4 2
27 26 23 18 16 17 20 21 21 20 25 24 22 22 23 26 23 14 4 3 2 2 4 3 2 4 3 6 8 3 6 5 5 2 3 3 4 4 5 5 11 7 13 8 5 6 6 8 8 6 10 5 5 5
30 25 20 14 12 11 11 17 14 19 20 20 22 20 24 26 21 7 2 2 1 3 2 2 1 2 1 8 12 8 10 8 3 3 2 4 3 4 2 3 5 6 9 10 8 11 6 5 7 9 11 12 10 8
29 20 19 16 14 15 13 15 13 16 13 17 22 18 27 24 18 5 3 3 3 0 1 3 2 2 2 6 11 11 10 3 3 4 3 1 2 3 4 5 4 8 7 7 7 7 7 3 2 3 4 4 5 8
23 22 18 19 18 17 17 16 15 15 15 19 13 22 28 24 5 4 6 3 8 2 1 1 0 1 0 3 2 3 3 2 4 3 3 3 2 4 2 6 5 10 12 8 4 7 2 3 5 2 7 5 5 8
24 22 24 22 21 20 17 18 22 16 17 19 17 31 27 21 12 5 3 9 5 3 3 2 2 1 2 3 3 1 3 2 2 2 2 3 2 2 5 6 6 7 7 3 9 1 2 7 7 6 3 3 5 6
28 29 31 27 23 20 20 19 17 15 20 22 32 29 8 7 4 3 2 9 3 1 3 2 7 5 2 1 3 2 2 3 2 3 4 5 4 7 6 10 8 10 9 6 7 6 4 5 8 6 5 3 5 4
30 32 18 8 14 18 13 14 18 18 35 37 14 6 4 2 5 6 7 5 5 2 0 1 2 3 3 2 1 4 2 4 4 4 4 4 5 2 6 5 3 5 7 11 7 3 3 3 7 4 3 3 4 5
30 33 9 4 6 12 2 11 28 39 20 5 5 4 2 5 5 5 3 5 2 0 1 2 2 4 2 3 3 2 3 3 5 5 6 5 6 6 6 7 4 4 6 5 6 5 5 4 8 7 5 4 6 6
29 33 12 12 14 23 32 27 20 7 2 9 12 7 4 5 5 8 1 2 2 5 3 3 4 3 2 1 2 3 5 4 5 7 5 4 5 3 6 6 4 4 6 7 5 8 7 9 8 9 7 6 4 3
26 29 16 18 23 29 24 17 19 26 10 5 7 6 5 4 8 6 5 3 2 2 3 1 3 2 1 2 3 4 5 5 9 4 4 7 4 4 6 5 5 5 7 7 7 7 9 8 7 5 7 4 5 5
19 22 13 22 24 23 26 22 11 7 8 6 5 5 4 1 3 6 5 5 5 2 2 2 2 4 2 2 1 2 2 5 6 6 7 4 5 7 6 4 6 6 6 8 7 7 8 8 7 6 6 3 5 5
11 12 16 8 20 17 13 12 10 6 5 5 5 3 2 2 1 2 2 2 3 3 1 1 3 2 2 3 2 1 3 4 5 7 5 2 3 6 6 4 6 6 6 6 6 7 8 7 7 6 4 4 4 5
4 7 5 14 14 14 12 9 7 4 5 5 6 6 1 4 4 1 1 1 2 1 2 1 2 3 6 4 3 8 7 6 5 3 1 2 4 4 6 6 6 6 6 6 6 6 7 6 7 6 5 6 6 5
7 0 2 16 14 16 20 6 5 7 5 4 2 3 4 3 4 3 3 3 2 3 1 2 4 3 1 3 4 3 4 4 1 1 3 1 1 6 6 7 6 6 6 6 6 7 6 5 4 7 10 4 7 7
2 2 17 13 6 7 5 6 5 5 5 2 4 3 1 2 4 1 1 2 3 1 1 2 2 3 4 2 2 3 2 0 1 3 3 2 2 4 4 8 6 5 6 6 7 5 6 8 9 6 6 5 8 6
4 6 13 13 8 6 4 4 3 4 2 1 1 0 1 2 1 2 1 3 0 2 1 1 1 3 4 3 3 2 4 3 4 3 3 3 2 3 6 8 9 8 7 4 5 5 5 6 6 4 3 3 6 3
17 16 14 17 8 5 5 3 3 4 2 2 2 2 2 1 1 2 2 2 2 2 1 3 5 2 4 2 3 3 5 7 8 9 3 1 2 3 5 7 6 7 7 7 6 6 6 6 5 4 4 4 5 4
7 5 9 7 5 7 5 2 4 1 2 3 1 2 0 3 2 0 1 2 3 4 3 4 2 1 0 2 2 1 7 8 5 2 7 6 3 5 5 5 7 5 5 5 5 5 6 5 4 5 6 6 5 5
2 5 3 5 5 5 6 2 3 2 4 2 2 2 2 1 2 2 2 2 3 4 2 2 1 2 2 1 3 3 2 5 7 9 10 11 6 6 6 6 7 5 4 3 4 6 4 3 5 6 7 5 6 5
6 5 5 4 5 5 1 2 4 4 3 2 2 2 3 1 2 1 1 4 3 1 1 2 2 2 4 0 2 1 4 5 6 7 7 5 4 5 6 4 6 7 6 2 2 4 5 5 7 8 6 6 6 5
8 6 4 3 3 3 3 4 3 3 3 2 2 2 2 0 2 1 4 3 1 2 3 5 6 5 2 1 2 2 3 3 6 6 3 7 7 3 4 4 4 4 4 6 4 4 4 5 7 6 6 7 6 5
3 2 3 1 3 5 4 2 3 2 3 1 2 3 1 2 2 3 4 0 1 2 2 3 1 2 3 2 2 2 2 1 6 7 2 2 7 5 5 4 4 3 1 7 5 6 4 4 4 6 6 7 9 8
1 4 2 0 1 3 5 4 5 5 3 2 5 2 2 2 3 4 0 2 1 2 4 5 4 3 1 1 4 3 3 2 4 4 1 1 3 5 7 7 5 3 3 1 7 7 6 4 6 7 6 7 9 10
1 1 2 1 2 3 3 3 2 3 4 5 3 2 3 1 4 2 2 2 2 2 2 1 2 2 3 3 1 1 3 3 3 3 6 4 3 2 3 5 5 4 6 5 5 7 8 7 6 6 6 3 3 6
2 4 0 2 2 2 4 2 3 5 3 2 3 2 7 6 4 2 2 2 2 2 2 4 4 3 3 3 4 6 5 4 7 8 6 4 4 3 3 2 1 10 6 5 5 5 6 7 8 7 7 7 4 2
3 3 2 2 2 3 2 2 3 1 1 1 3 2 3 3 2 1 2 2 1 2 3 4 4 3 6 5 4 2 4 5 7 7 5 3 0 3 1 2 4 4 4 5 7 6 8 6 7 7 7 6 4 4
4 3 2 1 1 1 2 2 2 2 1 2 1 4 4 4 3 0 2 2 2 1 1 1 2 3 3 4 2 2 2 2 2 4 4 4 6 3 4 5 5 4 3 5 6 7 11 9 10 4 7 6 5 5
1 2 1 1 1 1 2 1 1 1 1 1 1 1 3 4 4 1 1 1 3 3 4 3 3 1 4 4 3 4 2 2 2 1 0 1 3 7 7 5 4 4 5 5 5 7 8 5 6 8 8 8 7 7
4 3 2 2 2 2 2 2 2 2 2 2 1 1 3 2 3 3 4 3 2 1 1 3 3 2 3 3 3 2 2 2 7 4 4 3 3 3 5 5 5 5 6 6 6 7 8 8 7 7 8 9 8 8
1 1 1 1 2 2 3 3 3 2 2 3 3 3 2 2 3 3 2 1 2 3 1 1 1 1 3 4 3 2 1 1 5 9 6 6 7 7 5 4 5 5 8 7 6 7 9 9 8 7 8 9 9 8
Wind_Direction
292 284 287 279 269 263 265 255 256 258 262 261 242 245 264 217 203 175 183 185 232 190 272 299 212 157 143 177 161 161 118 222 121 189 193 180 171 198 130 149 170 154 165 187 128 218 244 157 59 186 196 88 163 189
305 285 284 284 272 257 254 252 253 256 257 251 241 243 252 206 197 186 190 181 191 234 241 202 280 301 184 178 141 185 159 152 167 166 215 142 160 139 146 214 132 208 185 181 194 205 212 201 200 202 140 163 195 180
312 309 300 290 281 247 243 245 251 253 249 247 248 233 256 187 194 183 161 185 197 181 355 278 196 214 163 204 162 136 249 164 177 155 150 174 181 132 184 215 105 253 169 183 100 206 229 220 244 246 197 180 160 230
316 308 309 297 279 253 247 245 237 256 248 243 225 221 253 173 191 167 157 185 238 251 179 225 13 233 158 158 180 131 133 103 99 105 123 165 179 170 193 153 204 182 147 158 270 278 289 251 228 235 227 199 212 208
321 298 292 297 292 295 264 257 236 256 240 241 223 215 231 171 170 121 115 201 185 275 156 162 154 222 274 161 160 142 152 145 134 121 136 193 138 121 61 70 220 190 161 188 213 208 179 228 200 188 208 215 217 189
326 311 280 277 263 257 247 247 224 237 250 248 231 241 161 161 130 106 26 251 168 307 127 145 331 350 38 163 161 165 163 127 109 151 185 218 249 135 159 219 239 191 189 178 195 203 187 121 62 10 186 211 188 167
321 329 302 278 273 271 266 264 255 244 256 265 208 197 144 141 100 120 180 203 153 109 98 109 124 299 212 116 39 71 72 71 113 183 181 162 174 160 189 223 207 196 207 207 137 115 82 181 177 137 108 84 84 90
325 319 310 289 266 261 258 263 260 237 255 217 208 140 132 119 97 50 355 125 107 89 62 209 157 198 208 136 119 35 109 130 182 146 98 146 99 102 243 202 170 184 178 175 188 110 136 113 107 96 79 97 78 92
321 317 301 280 255 252 247 251 233 254 251 194 137 111 84 44 70 216 58 71 49 83 194 210 157 171 128 88 121 127 165 144 107 161 178 148 159 212 200 169 197 200 178 181 109 91 104 136 139 118 101 84 126 128
325 322 309 278 235 238 224 233 246 203 140 115 101 62 56 284 165 95 14 32 13 350 344 309 36 123 164 176 100 110 141 160 169 205 118 189 237 219 185 167 160 138 125 129 109 140 170 199 165 141 141 99 92 104
335 344 348 228 179 148 153 213 131 121 110 50 79 80 174 121 61 37 43 79 316 9 179 232 191 146 233 169 133 151 172 192 166 202 171 189 246 202 144 121 84 76 98 86 90 82 101 141 152 134 117 93 108 118
347 351 331 182 139 131 110 110 107 70 71 120 105 87 49 45 46 79 318 258 204 225 287 170 198 190 182 108 137 175 191 171 212 148 174 201 245 104 121 115 99 87 97 92 75 100 86 89 105 110 114 120 111 103
1 355 24 145 143 120 117 103 101 114 81 57 56 70 61 331 57 110 183 285 215 288 344 343 209 189 172 192 196 193 197 190 135 177 200 229 164 118 115 118 105 84 86 85 75 72 81 84 76 89 114 103 113 90
11 11 71 91 97 105 108 111 123 76 65 69 93 70 97 345 222 174 170 175 227 132 319 335 273 204 186 223 209 206 211 146 173 165 218 233 187 146 123 116 127 123 106 108 103 100 94 94 86 68 79 100 113 94
22 29 20 58 116 94 74 71 66 52 76 82 68 113 188 224 36 235 234 65 283 174 159 49 277 213 176 233 213 102 227 194 196 196 221 195 154 125 134 128 126 126 121 123 126 118 110 107 104 93 66 82 83 99
17 65 37 36 95 61 44 38 35 70 53 72 71 90 46 66 317 298 40 279 265 20 17 53 256 202 228 183 174 206 151 211 228 224 20 27 126 116 127 122 117 121 128 125 117 108 105 99 105 108 82 65 66 69
74 63 93 105 81 50 38 59 45 44 99 57 34 57 109 99 167 207 140 235 289 55 99 80 274 302 326 135 204 222 216 232 297 297 68 344 155 128 119 106 100 107 107 106 110 106 103 106 89 96 90 51 77 70
83 294 112 102 83 57 32 24 80 82 70 85 79 234 179 135 128 332 238 326 74 112 58 187 130 309 276 187 233 225 162 93 159 75 83 76 71 97 106 110 104 104 104 106 116 108 105 109 102 100 108 110 95 74
129 93 79 52 61 78 69 23 21 93 195 186 263 250 172 179 182 82 94 320 105 134 62 117 224 234 251 206 168 160 145 179 149 119 89 55 98 123 120 112 108 101 93 76 94 99 94 80 104 109 125 91 100 92
70 60 60 42 50 75 62 356 30 87 146 224 35 5 77 140 293 69 55 17 102 100 53 179 225 170 194 317 2 308 129 133 138 118 95 96 86 114 120 120 105 106 105 98 84 84 96 90 67 73 78 88 98 83
39 22 33 52 42 62 83 18 42 133 155 105 279 97 91 17 32 30 223 243 92 188 230 224 164 164 5 280 280 253 129 150 145 124 146 144 176 137 117 98 94 101 111 121 118 90 78 91 92 84 82 73 73 77
281 36 62 32 65 29 71 325 132 237 77 186 53 72 98 126 258 274 260 60 214 229 163 134 126 131 132 326 329 13 168 114 106 107 99 124 144 137 141 133 128 122 107 123 119 119 113 107 100 91 90 81 79 77
64 39 41 47 74 43 296 3 66 359 76 266 29 30 309 316 249 317 281 217 235 131 119 83 117 44 94 234 243 51 47 107 114 115 120 108 105 113 122 107 120 126 122 74 79 113 114 116 106 104 103 91 93 84
37 47 69 78 47 124 22 26 15 41 32 168 177 232 220 156 336 174 257 234 137 127 146 168 165 121 139 85 78 61 47 78 95 74 67 130 124 64 79 94 82 77 97 117 104 93 95 96 110 112 114 110 98 107
119 31 81 11 355 88 75 49 356 77 185 264 210 218 149 344 199 218 237 175 147 185 147 139 82 46 99 62 91 92 357 88 137 133 324 78 113 100 72 52 60 47 100 130 129 126 115 109 110 116 120 122 127 125
104 1 63 122 293 134 176 134 190 196 136 174 227 297 352 216 235 243 63 11 27 154 170 184 165 132 81 7 132 148 188 194 102 100 292 126 113 136 144 146 147 178 190 154 132 134 132 115 120 120 106 116 123 119
173 119 358 212 92 111 75 39 58 114 154 191 212 106 80 59 260 293 341 23 351 20 339 87 143 131 151 156 116 72 80 43 93 138 113 108 75 72 125 153 164 196 146 141 128 143 145 140 129 129 130 92 114 133
38 360 95 338 38 359 131 90 143 193 226 263 77 171 168 192 242 281 260 354 337 343 55 38 26 29 93 97 114 121 84 87 93 95 93 68 54 47 42 27 46 129 121 119 132 123 134 144 147 148 149 147 143 125
42 348 339 358 2 37 52 144 199 278 242 97 137 239 252 243 241 302 311 318 356 66 84 100 35 37 73 73 58 37 117 142 126 124 141 172 44 282 48 96 99 99 113 120 141 133 139 133 138 138 132 130 129 110
346 345 17 38 48 351 290 173 253 288 260 215 229 311 313 295 264 204 59 34 54 116 187 135 117 80 124 126 112 38 1 62 74 131 147 185 206 161 141 136 131 127 116 114 121 137 116 105 103 80 111 119 126 121
315 323 297 11 46 324 324 292 246 256 275 290 231 199 259 302 324 7 90 193 115 96 88 79 39 65 124 134 133 127 265 257 221 301 253 138 140 144 149 146 134 135 130 125 120 121 124 107 125 132 137 138 145 143
333 29 348 357 318 320 354 7 342 4 339 350 9 299 313 333 328 341 3 347 95 99 167 153 127 223 205 163 162 166 109 152 172 194 172 142 149 123 123 129 131 129 127 124 119 132 138 138 141 146 150 152 152 152
325 347 6 356 9 18 23 354 21 2 29 25 34 358 359 336 307 332 351 20 343 338 333 206 168 78 171 174 171 139 94 75 157 162 143 133 143 145 126 127 133 137 137 135 133 140 146 142 150 152 154 160 163 159